NOAA 16 DEB

Satellite information

Favourite Embed

Satellite Type and Status

DEBRISIN ORBIT

Key statistics

Satellite NOAA 16 DEB at a glance.

Uptime

9056

Days in orbit

Revolutions

≈ 14.6

Per day

Orbit

SSO

Sun Synchronous Orbit

Inclination

98.8

Latest

Satellite identification and parameters

Extended collection of information and parameters for NOAA 16 DEB.

Object identification

Identified? True

Debris? True

Object name: NOAA 16 DEB

International designator: 2000-055AV

Object number (NORAD): 41086

Object ID (CCSDS): 41086

Country: UNITED STATES OF AMERICA (US)

Current information (Y/N): Y

RCS size: SMALL

Orbital parameters

Period: 98.786 minutes

Inclination: 98.8069 deg

SMA: 7078.773 km

Apoapsis: 721.529 km

Periapsis: 679.748 km

RAAN: 333.9234 deg

Eccentricy: 0.0029512

Argument of periapsis: 320.005 deg

Mean anomaly: 39.8973 deg

Mean motion: 14.57691921 rev/day

Mean motion (dot): 0.00008563 rev/day2

B* drag term: 0.0018747 1/REarth

Two-line elements (TLE)

Creation date: July 6, 2025, 6:05 p.m.

Reference frame: TEME

Reference center: EARTH

Epoch: July 6, 2025, 5:22 a.m. UTC

TLE line 0: 0 NOAA 16 DEB

TLE line 1: 1 41086U 00055AV 25187.22416965 .00008563 00000-0 18747-2 0 9998

TLE line 2: 2 41086 98.8069 333.9234 0029512 320.0050 39.8973 14.57691921501120

Live tracking on map

Real-time ground track for satellite NOAA 16 DEB.

In-orbit conjunctions

A list of the most updated potential collisions computed for object NOAA 16 DEB.

Target Orbit TCA Probability of collision Miss distance Type
COSMOS 2251 DEB LEO 2025-03-07 05:33:27 0.0001443507 79.0 (m) DEBRIS
COSMOS 2251 DEB LEO 2024-11-12 16:19:48 0.001129816 94.0 (m) DEBRIS
CZ-6A DEB SSO 2024-11-11 17:28:16 0.0001531604 525.0 (m) DEBRIS

Associated space launch

The NOAA K, L and M POES satellites begin the fifth generation of improved environmental monitoring in support of NOAA missions. The instrument payload has significant improvements and additions/deletions. The instrument changes have effected the spacecraft subsystems and data formats.

NOAA 16 DEB was lifted into orbit during the mission ‘Titan II SLV | NOAA 16’, on board a Titan II SLV space rocket.

The launch took place on Sept. 21, 2000, 10:22 a.m. from Space Launch Complex 4W.

For more information about the launch, click the button.

Launch to space Titan II SLV | NOAA 16
Titan II SLV | NOAA 16

Agency: N/A

Status: Launch Successful

Launch date: Sept. 21, 2000, 10:22 a.m. UTC

Rocket: Titan II SLV

Launch pad: Space Launch Complex 4W

Location: Vandenberg SFB, CA, USA

...

Latest news about this satellite

There are no fresh news available about this satellite. Check back as we update our databases every day.


Newsletter sign-up

Weekly statistics, charts and insights to help you stay on top of the space industry.